FW1340 Weather Reports


Display with metric or nautical units.
time (UTC)temp
F
wind
direction
speed
MPH
gust
MPH
rain 1hr
in
rain 24hr
in
rain mn
in
humidity
%
barometer
mb
20260902220049 80 328 0.0 0.0 0.00 0.00 0.00 50 1016.1
20260902214549 79 286 0.0 0.0 0.00 0.00 0.00 51 1016.3
20260902213041 77 281 0.0 0.0 0.00 0.00 0.00 53 1016.4
20260902211538 77 247 0.0 0.0 0.00 0.00 0.00 52 1016.5
20260902210039 77 308 0.0 0.0 0.00 0.00 0.00 52 1016.6
20260902204541 77 245 0.0 0.0 0.00 0.00 0.00 53 1016.7
20260902203036 77 288 0.0 0.0 0.00 0.00 0.00 53 1016.8
20260902201542 77 229 0.0 0.0 0.00 0.00 0.00 53 1017.0
20260902200033 76 258 0.0 0.0 0.00 0.00 0.00 54 1017.2
20260902194547 76 277 0.0 0.0 0.00 0.00 0.00 53 1017.3
20260902193031 76 221 0.0 0.0 0.00 0.00 0.00 52 1017.3
20260902191529 76 168 0.0 0.0 0.00 0.00 0.00 52 1017.5
20260902190029 76 309 0.0 0.0 0.00 0.00 0.00 53 1017.6
20260902184530 76 250 0.0 0.0 0.00 0.00 0.00 52 1017.6
20260902183029 77 195 0.0 0.0 0.00 0.00 0.00 52 1017.6
20260902181522 75 171 0.0 0.0 0.00 0.00 0.00 55 1017.7
20260902180020 74 319 0.0 0.0 0.00 0.00 0.00 57 1017.7
20260902174514 73 259 0.0 0.0 0.00 0.00 0.00 58 1017.7
20260902173013 73 319 0.0 0.0 0.00 0.00 0.00 59 1017.6
20260902171512 72 124 0.0 0.0 0.00 0.00 0.00 60 1017.7
20260902170008 71 158 0.0 0.0 0.00 0.00 0.00 62 1017.6
20260902164606 70 215 0.0 0.0 0.00 0.00 0.00 64 1017.5
20260902163056 68 92 0.0 0.0 0.00 0.00 0.00 68 1017.5
20260902161556 67 65 0.0 0.0 0.00 0.00 0.00 70 1017.6
20260902160104 65 86 0.0 0.0 0.00 0.00 0.00 75 1017.6
20260902154544 63 88 0.0 0.0 0.00 0.00 0.00 78 1017.7
20260902153044 62 86 0.0 0.0 0.00 0.00 0.00 81 1017.6
20260902151540 60 90 0.0 0.0 0.00 0.00 0.00 84 1017.4
20260902150031 58 71 0.0 0.0 0.00 0.00 0.00 87 1017.3
20260902144526 57 101 0.0 0.0 0.00 0.00 0.00 88 1017.3
20260902143024 56 89 0.0 0.0 0.00 0.00 0.00 89 1017.2
20260902141524 55 92 0.0 0.0 0.00 0.00 0.00 90 1017.2
20260902140020 54 98 0.0 0.0 0.00 0.00 0.00 90 1017.1
20260902134526 53 68 0.0 0.0 0.00 0.00 0.00 89 1017.0
20260902133016 53 68 0.0 0.0 0.00 0.00 0.00 90 1016.9
20260902131515 53 68 0.0 0.0 0.00 0.00 0.00 90 1016.7
20260902130015 53 68 0.0 0.0 0.00 0.00 0.00 90 1016.6
20260902124516 53 85 0.0 0.0 0.00 0.00 0.00 90 1016.6
20260902123019 52 85 0.0 0.0 0.00 0.00 0.00 90 1016.5
20260902121514 52 113 0.0 0.0 0.00 0.00 0.00 89 1016.4
20260902120012 52 92 0.0 0.0 0.00 0.00 0.00 88 1016.4
20260902114514 53 116 0.0 0.0 0.00 0.00 0.00 88 1016.4
20260902113009 53 121 0.0 0.0 0.00 0.00 0.00 87 1016.5
20260902111507 53 157 0.0 0.0 0.00 0.00 0.00 86 1016.5
20260902110012 53 157 0.0 0.0 0.00 0.00 0.00 86 1016.7
20260902104512 53 165 0.0 0.0 0.00 0.00 0.00 85 1016.8
20260902103001 54 165 0.0 0.0 0.00 0.00 0.00 85 1016.8
20260902101605 54 165 0.0 0.0 0.00 0.00 0.00 86 1016.9
20260902100128 54 165 0.0 0.0 0.00 0.00 0.00 86 1017.0
20260902094558 54 165 0.0 0.0 0.00 0.00 0.00 86 1017.0
20260902093112 54 114 0.0 0.0 0.00 0.00 0.00 86 1017.0
20260902091606 54 114 0.0 0.0 0.00 0.00 0.00 86 1016.8
20260902090155 54 114 0.0 0.0 0.00 0.00 0.00 86 1016.9
20260902084602 54 114 0.0 0.0 0.00 0.00 0.00 86 1016.9
20260902083103 55 114 0.0 0.0 0.00 0.00 0.00 85 1016.9
20260902081610 55 114 0.0 0.0 0.00 0.00 0.00 85 1016.8
20260902080057 55 114 0.0 0.0 0.00 0.00 0.00 84 1016.8
20260902074548 55 121 0.0 0.0 0.00 0.00 0.00 84 1016.7
20260902073043 56 98 0.0 0.0 0.00 0.00 0.00 84 1016.8
20260902071549 56 89 0.0 0.0 0.00 0.00 0.00 83 1016.7
20260902070039 57 115 0.0 0.0 0.00 0.00 0.00 83 1016.7
20260902064538 57 119 0.0 0.0 0.00 0.00 0.00 82 1016.6
20260902063100 57 109 0.0 0.0 0.00 0.00 0.00 81 1016.6
20260902061539 57 74 0.0 0.0 0.00 0.00 0.00 79 1016.7
20260902060048 59 96 0.0 0.0 0.00 0.00 0.00 77 1016.6
20260902054537 60 252 0.0 0.0 0.00 0.00 0.00 77 1016.7
20260902053040 60 252 0.0 0.0 0.00 0.00 0.00 76 1016.8
20260902051535 61 244 0.0 0.0 0.00 0.00 0.00 74 1016.8
20260902050035 62 263 0.0 0.0 0.00 0.00 0.00 72 1016.8
20260902044542 63 263 0.0 0.0 0.00 0.00 0.00 71 1016.7
20260902043033 63 278 0.0 0.0 0.00 0.00 0.00 68 1016.7
20260902041537 64 281 0.0 0.0 0.00 0.00 0.00 66 1016.5
20260902040034 64 258 0.0 0.0 0.00 0.00 0.00 65 1016.3
20260902034529 65 276 0.0 0.0 0.00 0.00 0.00 64 1016.1
20260902033028 65 271 0.0 0.0 0.00 0.00 0.00 65 1015.8
20260902031537 66 249 0.0 0.0 0.00 0.00 0.00 64 1015.5
20260902030027 66 277 0.0 0.0 0.00 0.00 0.00 64 1015.3
20260902024527 67 302 0.0 0.0 0.00 0.00 0.00 62 1015.1
20260902023026 68 277 0.0 0.0 0.00 0.00 0.00 60 1015.0
20260902021537 69 242 0.0 0.0 0.00 0.00 0.00 58 1014.8
20260902020033 70 277 0.0 0.0 0.00 0.00 0.00 55 1014.7
20260902014543 71 259 0.0 0.0 0.00 0.00 0.00 52 1014.6
20260902013024 72 288 0.0 0.0 0.00 0.00 0.00 51 1014.5
20260902011524 73 276 0.0 0.0 0.00 0.00 0.00 49 1014.4
20260902010027 74 252 0.0 0.0 0.00 0.00 0.00 48 1014.3
20260902004525 75 270 0.0 0.0 0.00 0.00 0.00 47 1014.2
20260902003024 76 252 0.0 0.0 0.00 0.00 0.00 47 1014.1
20260902001523 76 250 0.0 0.0 0.00 0.00 0.00 46 1014.2
20260902000033 77 244 0.0 0.0 0.00 0.00 0.00 44 1014.2
20260901234536 78 237 0.0 0.0 0.00 0.00 0.00 43 1014.2
20260901233019 77 267 0.0 0.0 0.00 0.00 0.00 44 1014.4
20260901231519 78 250 0.0 0.0 0.00 0.00 0.00 43 1014.5
20260901230018 78 284 0.0 0.0 0.00 0.00 0.00 43 1014.5
20260901224517 78 259 0.0 0.0 0.00 0.00 0.00 43 1014.7
20260901223015 77 255 0.0 0.0 0.00 0.00 0.00 45 1014.8
20260901221535 76 272 0.0 0.0 0.00 0.00 0.00 46 1015.0